Time,TemperatureF,DewpointF,PressureIn,WindDirection,WindDirectionDegrees,WindSpeedMPH,WindSpeedGustMPH,Humidity,HourlyPrecipIn,Conditions,Clouds,dailyrainin,SoftwareType,DateUTC
2013-02-09 00:02:00,72.0,-99.9,30.07,NW,325,8.0,11.0,-999,-99.99,,,-99.99,,2013-02-09 05:02:00,
2013-02-09 00:12:00,71.0,-99.9,30.07,NNW,327,9.0,12.0,-999,-99.99,,,-99.99,,2013-02-09 05:12:00,
2013-02-09 00:22:00,71.0,-99.9,30.07,NW,325,9.0,12.0,-999,-99.99,,,-99.99,,2013-02-09 05:22:00,
2013-02-09 00:32:00,72.0,-99.9,30.07,NW,321,10.0,12.0,-999,-99.99,,,-99.99,,2013-02-09 05:32:00,
2013-02-09 00:42:00,71.0,-99.9,30.07,NW,325,10.0,13.0,-999,-99.99,,,-99.99,,2013-02-09 05:42:00,
2013-02-09 00:52:00,71.0,-99.9,30.07,NW,325,11.0,14.0,-999,-99.99,,,-99.99,,2013-02-09 05:52:00,
2013-02-09 01:02:00,72.0,-99.9,30.07,NW,326,10.0,14.0,-999,-99.99,,,-99.99,,2013-02-09 06:02:00,
2013-02-09 01:11:00,72.0,-99.9,30.07,NW,324,11.0,13.0,-999,-99.99,,,-99.99,,2013-02-09 06:11:00,
2013-02-09 01:22:00,72.0,-99.9,30.06,NW,325,10.0,13.0,-999,-99.99,,,-99.99,,2013-02-09 06:22:00,
2013-02-09 01:32:00,72.0,-99.9,30.06,NW,324,9.0,12.0,-999,-99.99,,,-99.99,,2013-02-09 06:32:00,
2013-02-09 01:42:00,72.0,-99.9,30.06,NW,323,12.0,14.0,-999,-99.99,,,-99.99,,2013-02-09 06:42:00,
2013-02-09 01:52:00,72.0,-99.9,30.06,NW,323,10.0,16.0,-999,-99.99,,,-99.99,,2013-02-09 06:52:00,
2013-02-09 02:01:00,71.0,-99.9,30.06,NW,324,13.0,16.0,-999,-99.99,,,-99.99,,2013-02-09 07:01:00,
2013-02-09 02:11:00,71.0,-99.9,30.06,NNW,327,10.0,13.0,-999,-99.99,,,-99.99,,2013-02-09 07:11:00,
2013-02-09 02:22:00,71.0,-99.9,30.06,NNW,332,9.0,13.0,-999,-99.99,,,-99.99,,2013-02-09 07:22:00,
2013-02-09 02:32:00,71.0,-99.9,30.06,NNW,327,8.0,12.0,-999,-99.99,,,-99.99,,2013-02-09 07:32:00,
2013-02-09 02:42:00,71.0,-99.9,30.06,NNW,331,4.0,13.0,-999,-99.99,,,-99.99,,2013-02-09 07:42:00,
2013-02-09 02:52:00,71.0,-99.9,30.05,NNW,331,6.0,11.0,-999,-99.99,,,-99.99,,2013-02-09 07:52:00,
2013-02-09 03:01:00,71.0,-99.9,30.05,North,353,4.0,9.0,-999,-99.99,,,-99.99,,2013-02-09 08:01:00,
2013-02-09 03:11:00,71.0,-99.9,30.05,NNW,345,3.0,10.0,-999,-99.99,,,-99.99,,2013-02-09 08:11:00,
2013-02-09 03:22:00,71.0,-99.9,30.05,North,-999,6.0,11.0,-999,-99.99,,,-99.99,,2013-02-09 08:22:00,
2013-02-09 03:32:00,71.0,-99.9,30.05,North,-999,4.0,11.0,-999,-99.99,,,-99.99,,2013-02-09 08:32:00,
2013-02-09 03:42:00,71.0,-99.9,30.06,NNW,343,4.0,9.0,-999,-99.99,,,-99.99,,2013-02-09 08:42:00,
2013-02-09 03:52:00,70.0,-99.9,30.06,NNW,343,5.0,11.0,-999,-99.99,,,-99.99,,2013-02-09 08:52:00,
2013-02-09 04:03:00,70.0,-99.9,30.06,NNW,345,5.0,11.0,-999,-99.99,,,-99.99,,2013-02-09 09:03:00,
2013-02-09 04:11:00,70.0,-99.9,30.06,North,352,3.0,9.0,-999,-99.99,,,-99.99,,2013-02-09 09:11:00,
2013-02-09 04:22:00,70.0,-99.9,30.06,NNW,345,5.0,12.0,-999,-99.99,,,-99.99,,2013-02-09 09:22:00,
2013-02-09 04:32:00,70.0,-99.9,30.05,North,356,4.0,11.0,-999,-99.99,,,-99.99,,2013-02-09 09:32:00,
2013-02-09 04:42:00,70.0,-99.9,30.05,North,4,5.0,9.0,-999,-99.99,,,-99.99,,2013-02-09 09:42:00,
2013-02-09 04:52:00,70.0,-99.9,30.05,North,359,6.0,11.0,-999,-99.99,,,-99.99,,2013-02-09 09:52:00,
2013-02-09 05:01:00,70.0,-99.9,30.05,North,5,5.0,11.0,-999,-99.99,,,-99.99,,2013-02-09 10:01:00,
2013-02-09 05:11:00,70.0,-99.9,30.06,North,9,5.0,10.0,-999,-99.99,,,-99.99,,2013-02-09 10:11:00,
2013-02-09 05:21:00,70.0,-99.9,30.06,NNE,18,6.0,9.0,-999,-99.99,,,-99.99,,2013-02-09 10:21:00,
2013-02-09 05:32:00,70.0,-99.9,30.06,NNE,12,4.0,10.0,-999,-99.99,,,-99.99,,2013-02-09 10:32:00,
2013-02-09 05:42:00,70.0,-99.9,30.06,NNE,23,8.0,12.0,-999,-99.99,,,-99.99,,2013-02-09 10:42:00,
2013-02-09 05:52:00,70.0,-99.9,30.06,NNE,23,9.0,13.0,-999,-99.99,,,-99.99,,2013-02-09 10:52:00,
2013-02-09 06:02:00,70.0,-99.9,30.06,North,10,6.0,12.0,-999,-99.99,,,-99.99,,2013-02-09 11:02:00,
2013-02-09 06:11:00,70.0,-99.9,30.07,NNE,25,12.0,14.0,-999,-99.99,,,-99.99,,2013-02-09 11:11:00,
2013-02-09 06:22:00,70.0,-99.9,30.07,NNE,22,10.0,14.0,-999,-99.99,,,-99.99,,2013-02-09 11:22:00,
2013-02-09 06:32:00,70.0,-99.9,30.07,NNE,22,10.0,13.0,-999,-99.99,,,-99.99,,2013-02-09 11:32:00,
2013-02-09 06:42:00,70.0,-99.9,30.08,NNE,19,9.0,12.0,-999,-99.99,,,-99.99,,2013-02-09 11:42:00,
2013-02-09 06:52:00,69.0,-99.9,30.08,NNE,19,8.0,11.0,-999,-99.99,,,-99.99,,2013-02-09 11:52:00,
2013-02-09 07:02:00,69.0,-99.9,30.08,NNE,18,8.0,12.0,-999,-99.99,,,-99.99,,2013-02-09 12:02:00,
2013-02-09 07:11:00,69.0,-99.9,30.09,NNE,19,8.0,11.0,-999,-99.99,,,-99.99,,2013-02-09 12:11:00,
2013-02-09 07:22:00,70.0,-99.9,30.09,NNE,20,7.0,11.0,-999,-99.99,,,-99.99,,2013-02-09 12:22:00,
2013-02-09 07:32:00,70.0,-99.9,30.09,NNE,21,8.0,11.0,-999,-99.99,,,-99.99,,2013-02-09 12:32:00,
2013-02-09 07:42:00,69.0,-99.9,30.09,NNE,19,9.0,11.0,-999,-99.99,,,-99.99,,2013-02-09 12:42:00,
2013-02-09 07:53:00,70.0,-99.9,30.09,NNE,23,8.0,11.0,-999,-99.99,,,-99.99,,2013-02-09 12:53:00,
2013-02-09 08:02:00,70.0,-99.9,30.09,NNE,30,9.0,11.0,-999,-99.99,,,-99.99,,2013-02-09 13:02:00,
2013-02-09 08:11:00,70.0,-99.9,30.10,NNE,24,9.0,11.0,-999,-99.99,,,-99.99,,2013-02-09 13:11:00,
2013-02-09 08:22:00,70.0,-99.9,30.10,NNE,26,9.0,11.0,-999,-99.99,,,-99.99,,2013-02-09 13:22:00,
2013-02-09 08:32:00,70.0,-99.9,30.11,NNE,21,9.0,11.0,-999,-99.99,,,-99.99,,2013-02-09 13:32:00,
2013-02-09 08:42:00,71.0,-99.9,30.11,NNE,18,7.0,11.0,-999,-99.99,,,-99.99,,2013-02-09 13:42:00,
2013-02-09 08:52:00,71.0,-99.9,30.11,NNE,16,6.0,12.0,-999,-99.99,,,-99.99,,2013-02-09 13:52:00,
2013-02-09 09:02:00,71.0,-99.9,30.11,NNE,19,7.0,11.0,-999,-99.99,,,-99.99,,2013-02-09 14:02:00,
2013-02-09 09:12:00,71.0,-99.9,30.12,NNE,17,6.0,10.0,-999,-99.99,,,-99.99,,2013-02-09 14:12:00,
2013-02-09 09:22:00,70.0,-99.9,30.12,NNE,24,10.0,11.0,-999,-99.99,,,-99.99,,2013-02-09 14:22:00,
2013-02-09 09:32:00,70.0,-99.9,30.12,NNE,26,8.0,11.0,-999,-99.99,,,-99.99,,2013-02-09 14:32:00,
2013-02-09 09:42:00,70.0,-99.9,30.13,NNE,27,9.0,10.0,-999,-99.99,,,-99.99,,2013-02-09 14:42:00,
2013-02-09 09:52:00,70.0,-99.9,30.13,NNE,26,8.0,9.0,-999,-99.99,,,-99.99,,2013-02-09 14:52:00,
2013-02-09 10:02:00,70.0,-99.9,30.13,NNE,33,9.0,11.0,-999,-99.99,,,-99.99,,2013-02-09 15:02:00,
2013-02-09 10:11:00,70.0,-99.9,30.13,NE,34,10.0,11.0,-999,-99.99,,,-99.99,,2013-02-09 15:11:00,
2013-02-09 10:22:00,70.0,-99.9,30.14,NE,39,9.0,10.0,-999,-99.99,,,-99.99,,2013-02-09 15:22:00,
2013-02-09 10:32:00,71.0,-99.9,30.14,NE,43,9.0,11.0,-999,-99.99,,,-99.99,,2013-02-09 15:32:00,
2013-02-09 10:42:00,71.0,-99.9,30.14,NE,46,9.0,11.0,-999,-99.99,,,-99.99,,2013-02-09 15:42:00,
2013-02-09 10:52:00,71.0,-99.9,30.14,NE,46,9.0,12.0,-999,-99.99,,,-99.99,,2013-02-09 15:52:00,
2013-02-09 11:01:00,71.0,-99.9,30.14,NE,50,9.0,13.0,-999,-99.99,,,-99.99,,2013-02-09 16:01:00,
2013-02-09 11:11:00,72.0,-99.9,30.14,NE,53,9.0,11.0,-999,-99.99,,,-99.99,,2013-02-09 16:11:00,
2013-02-09 11:22:00,72.0,-99.9,30.14,ENE,61,10.0,11.0,-999,-99.99,,,-99.99,,2013-02-09 16:22:00,
2013-02-09 11:32:00,72.0,-99.9,30.14,NE,53,10.0,12.0,-999,-99.99,,,-99.99,,2013-02-09 16:32:00,
2013-02-09 11:42:00,72.0,-99.9,30.14,ENE,59,11.0,13.0,-999,-99.99,,,-99.99,,2013-02-09 16:42:00,
2013-02-09 11:52:00,72.0,-99.9,30.14,NE,56,11.0,15.0,-999,-99.99,,,-99.99,,2013-02-09 16:52:00,
2013-02-09 12:01:00,72.0,-99.9,30.14,ENE,59,9.0,12.0,-999,-99.99,,,-99.99,,2013-02-09 17:01:00,
2013-02-09 12:11:00,73.0,-99.9,30.14,NE,55,10.0,13.0,-999,-99.99,,,-99.99,,2013-02-09 17:11:00,
2013-02-09 12:22:00,73.0,-99.9,30.13,NE,53,10.0,12.0,-999,-99.99,,,-99.99,,2013-02-09 17:22:00,
2013-02-09 12:32:00,73.0,-99.9,30.13,NE,49,12.0,14.0,-999,-99.99,,,-99.99,,2013-02-09 17:32:00,
2013-02-09 12:42:00,73.0,-99.9,30.13,NE,52,12.0,14.0,-999,-99.99,,,-99.99,,2013-02-09 17:42:00,
2013-02-09 12:52:00,73.0,-99.9,30.13,ENE,58,11.0,14.0,-999,-99.99,,,-99.99,,2013-02-09 17:52:00,
2013-02-09 13:02:00,74.0,-99.9,30.13,NE,53,11.0,14.0,-999,-99.99,,,-99.99,,2013-02-09 18:02:00,
2013-02-09 13:12:00,74.0,-99.9,30.12,NE,53,12.0,14.0,-999,-99.99,,,-99.99,,2013-02-09 18:12:00,
2013-02-09 13:23:00,74.0,-99.9,30.12,NE,49,11.0,13.0,-999,-99.99,,,-99.99,,2013-02-09 18:23:00,
2013-02-09 13:32:00,74.0,-99.9,30.12,NE,50,12.0,14.0,-999,-99.99,,,-99.99,,2013-02-09 18:32:00,
2013-02-09 13:42:00,76.0,-99.9,30.11,East,79,14.0,18.0,-999,-99.99,,,-99.99,,2013-02-09 18:42:00,
2013-02-09 13:52:00,78.0,-99.9,30.11,East,95,10.0,18.0,-999,-99.99,,,-99.99,,2013-02-09 18:52:00,
2013-02-09 14:02:00,78.0,-99.9,30.11,East,92,11.0,17.0,-999,-99.99,,,-99.99,,2013-02-09 19:02:00,
2013-02-09 14:11:00,78.0,-99.9,30.11,East,91,11.0,16.0,-999,-99.99,,,-99.99,,2013-02-09 19:11:00,
2013-02-09 14:22:00,78.0,-99.9,30.11,ESE,104,11.0,19.0,-999,-99.99,,,-99.99,,2013-02-09 19:22:00,
2013-02-09 14:32:00,78.0,-99.9,30.11,East,92,11.0,17.0,-999,-99.99,,,-99.99,,2013-02-09 19:32:00,
2013-02-09 14:42:00,78.0,-99.9,30.11,East,82,11.0,17.0,-999,-99.99,,,-99.99,,2013-02-09 19:42:00,
2013-02-09 14:52:00,78.0,-99.9,30.11,East,88,10.0,16.0,-999,-99.99,,,-99.99,,2013-02-09 19:52:00,
2013-02-09 15:02:00,77.0,-99.9,30.11,East,101,10.0,17.0,-999,-99.99,,,-99.99,,2013-02-09 20:02:00,
2013-02-09 15:11:00,78.0,-99.9,30.11,ESE,104,10.0,17.0,-999,-99.99,,,-99.99,,2013-02-09 20:11:00,
2013-02-09 15:22:00,77.0,-99.9,30.10,East,85,13.0,18.0,-999,-99.99,,,-99.99,,2013-02-09 20:22:00,
2013-02-09 15:32:00,78.0,-99.9,30.10,East,96,8.0,13.0,-999,-99.99,,,-99.99,,2013-02-09 20:32:00,
2013-02-09 15:42:00,76.0,-99.9,30.11,East,92,12.0,19.0,-999,-99.99,,,-99.99,,2013-02-09 20:42:00,
2013-02-09 15:52:00,77.0,-99.9,30.10,ESE,102,11.0,19.0,-999,-99.99,,,-99.99,,2013-02-09 20:52:00,
2013-02-09 16:02:00,77.0,-99.9,30.10,East,83,12.0,16.0,-999,-99.99,,,-99.99,,2013-02-09 21:02:00,
2013-02-09 16:12:00,77.0,-99.9,30.10,East,87,10.0,17.0,-999,-99.99,,,-99.99,,2013-02-09 21:12:00,
2013-02-09 16:22:00,76.0,-99.9,30.10,East,85,13.0,18.0,-999,-99.99,,,-99.99,,2013-02-09 21:22:00,
2013-02-09 16:32:00,76.0,-99.9,30.10,East,91,13.0,20.0,-999,-99.99,,,-99.99,,2013-02-09 21:32:00,
2013-02-09 16:42:00,76.0,-99.9,30.10,East,84,12.0,17.0,-999,-99.99,,,-99.99,,2013-02-09 21:42:00,
2013-02-09 16:52:00,76.0,-99.9,30.10,ESE,104,9.0,17.0,-999,-99.99,,,-99.99,,2013-02-09 21:52:00,
2013-02-09 17:02:00,76.0,-99.9,30.11,East,101,11.0,18.0,-999,-99.99,,,-99.99,,2013-02-09 22:02:00,
2013-02-09 17:11:00,76.0,-99.9,30.11,East,88,14.0,19.0,-999,-99.99,,,-99.99,,2013-02-09 22:11:00,
2013-02-09 17:22:00,76.0,-99.9,30.11,East,85,12.0,19.0,-999,-99.99,,,-99.99,,2013-02-09 22:22:00,
2013-02-09 17:32:00,76.0,-99.9,30.11,East,85,12.0,18.0,-999,-99.99,,,-99.99,,2013-02-09 22:32:00,
2013-02-09 17:42:00,76.0,-99.9,30.11,East,92,9.0,17.0,-999,-99.99,,,-99.99,,2013-02-09 22:42:00,
2013-02-09 17:52:00,76.0,-99.9,30.11,East,86,12.0,18.0,-999,-99.99,,,-99.99,,2013-02-09 22:52:00,
2013-02-09 18:02:00,75.0,-99.9,30.11,East,82,13.0,19.0,-999,-99.99,,,-99.99,,2013-02-09 23:02:00,
2013-02-09 18:11:00,75.0,-99.9,30.11,East,88,12.0,16.0,-999,-99.99,,,-99.99,,2013-02-09 23:11:00,
2013-02-09 18:22:00,75.0,-99.9,30.11,East,87,11.0,18.0,-999,-99.99,,,-99.99,,2013-02-09 23:22:00,
2013-02-09 18:32:00,75.0,-99.9,30.11,East,99,9.0,17.0,-999,-99.99,,,-99.99,,2013-02-09 23:32:00,
2013-02-09 18:42:00,75.0,-99.9,30.11,East,94,10.0,16.0,-999,-99.99,,,-99.99,,2013-02-09 23:42:00,
2013-02-09 18:52:00,74.0,-99.9,30.11,East,93,10.0,16.0,-999,-99.99,,,-99.99,,2013-02-09 23:52:00,
2013-02-09 19:02:00,74.0,-99.9,30.11,East,93,11.0,16.0,-999,-99.99,,,-99.99,,2013-02-10 00:02:00,
2013-02-09 19:12:00,74.0,-99.9,30.12,East,93,8.0,14.0,-999,-99.99,,,-99.99,,2013-02-10 00:12:00,
2013-02-09 19:22:00,74.0,-99.9,30.12,East,97,9.0,16.0,-999,-99.99,,,-99.99,,2013-02-10 00:22:00,
2013-02-09 19:32:00,74.0,-99.9,30.12,East,89,10.0,17.0,-999,-99.99,,,-99.99,,2013-02-10 00:32:00,
2013-02-09 19:42:00,74.0,-99.9,30.12,East,91,10.0,13.0,-999,-99.99,,,-99.99,,2013-02-10 00:42:00,
2013-02-09 19:52:00,74.0,-99.9,30.13,East,94,9.0,15.0,-999,-99.99,,,-99.99,,2013-02-10 00:52:00,
2013-02-09 20:01:00,74.0,-99.9,30.13,East,92,11.0,19.0,-999,-99.99,,,-99.99,,2013-02-10 01:01:00,
2013-02-09 20:12:00,74.0,-99.9,30.14,East,85,8.0,14.0,-999,-99.99,,,-99.99,,2013-02-10 01:12:00,
2013-02-09 20:22:00,74.0,-99.9,30.14,East,93,9.0,16.0,-999,-99.99,,,-99.99,,2013-02-10 01:22:00,
2013-02-09 20:32:00,74.0,-99.9,30.14,East,91,9.0,15.0,-999,-99.99,,,-99.99,,2013-02-10 01:32:00,
2013-02-09 20:42:00,74.0,-99.9,30.14,East,92,8.0,16.0,-999,-99.99,,,-99.99,,2013-02-10 01:42:00,
2013-02-09 20:52:00,74.0,-99.9,30.14,East,88,9.0,16.0,-999,-99.99,,,-99.99,,2013-02-10 01:52:00,
2013-02-09 21:01:00,74.0,-99.9,30.14,East,98,7.0,14.0,-999,-99.99,,,-99.99,,2013-02-10 02:01:00,
2013-02-09 21:11:00,74.0,-99.9,30.15,East,89,11.0,15.0,-999,-99.99,,,-99.99,,2013-02-10 02:11:00,
2013-02-09 21:22:00,74.0,-99.9,30.15,East,90,10.0,13.0,-999,-99.99,,,-99.99,,2013-02-10 02:22:00,
2013-02-09 21:32:00,74.0,-99.9,30.15,East,89,9.0,16.0,-999,-99.99,,,-99.99,,2013-02-10 02:32:00,
2013-02-09 21:42:00,74.0,-99.9,30.15,East,89,9.0,13.0,-999,-99.99,,,-99.99,,2013-02-10 02:42:00,
2013-02-09 21:52:00,74.0,-99.9,30.15,East,94,9.0,15.0,-999,-99.99,,,-99.99,,2013-02-10 02:52:00,
2013-02-09 22:02:00,74.0,-99.9,30.15,East,85,8.0,14.0,-999,-99.99,,,-99.99,,2013-02-10 03:02:00,
2013-02-09 22:12:00,74.0,-99.9,30.15,East,95,7.0,15.0,-999,-99.99,,,-99.99,,2013-02-10 03:12:00,
2013-02-09 22:22:00,74.0,-99.9,30.15,East,92,9.0,15.0,-999,-99.99,,,-99.99,,2013-02-10 03:22:00,
2013-02-09 22:32:00,74.0,-99.9,30.16,East,87,11.0,16.0,-999,-99.99,,,-99.99,,2013-02-10 03:32:00,
2013-02-09 22:42:00,74.0,-99.9,30.16,East,100,7.0,13.0,-999,-99.99,,,-99.99,,2013-02-10 03:42:00,
2013-02-09 22:52:00,74.0,-99.9,30.16,East,99,8.0,14.0,-999,-99.99,,,-99.99,,2013-02-10 03:52:00,
2013-02-09 23:02:00,74.0,-99.9,30.16,East,93,9.0,15.0,-999,-99.99,,,-99.99,,2013-02-10 04:02:00,
2013-02-09 23:11:00,74.0,-99.9,30.16,East,92,10.0,17.0,-999,-99.99,,,-99.99,,2013-02-10 04:11:00,
2013-02-09 23:22:00,74.0,-99.9,30.16,East,88,9.0,15.0,-999,-99.99,,,-99.99,,2013-02-10 04:22:00,
2013-02-09 23:32:00,74.0,-99.9,30.16,East,89,10.0,15.0,-999,-99.99,,,-99.99,,2013-02-10 04:32:00,
2013-02-09 23:42:00,74.0,-99.9,30.16,East,97,11.0,19.0,-999,-99.99,,,-99.99,,2013-02-10 04:42:00,
2013-02-09 23:52:00,74.0,-99.9,30.16,East,89,9.0,15.0,-999,-99.99,,,-99.99,,2013-02-10 04:52:00,